AWQ860 WIII-WATO

Flight info

Callsign AWQ860
Flight time N/A
Altitude 35000
Route CA T3 BA T19 TEPOS DCT HUMAI
Aircraft A320/M-SDE3FGHIRWY/LB1

Departure

Time 2026-05-07 05:56
Airport Soekarno-Hatta International Airport (WIII)

Arrival

Time N/A
Airport Komodo Airport (WATO)
Time Latitude Longitude Altitude Speed Heading
2026-05-07 05:35 -6.12051 106.65433 38 ft 0 kts 158°
2026-05-07 05:44 -6.12044 106.65430 38 ft 4 kts 159°
2026-05-07 05:44 -6.12018 106.65422 38 ft 4 kts 164°
2026-05-07 05:44 -6.11992 106.65415 38 ft 4 kts 172°
2026-05-07 05:44 -6.11965 106.65414 38 ft 4 kts 191°
2026-05-07 05:45 -6.11945 106.65424 38 ft 2 kts 245°
2026-05-07 05:45 -6.11943 106.65430 38 ft 0 kts 248°
2026-05-07 05:49 -6.11943 106.65428 36 ft 3 kts 248°
2026-05-07 05:49 -6.11957 106.65388 38 ft 6 kts 259°
2026-05-07 05:49 -6.11946 106.65352 38 ft 8 kts 300°
2026-05-07 05:49 -6.11913 106.65309 38 ft 6 kts 308°
2026-05-07 05:50 -6.11886 106.65275 38 ft 6 kts 308°
2026-05-07 05:50 -6.11852 106.65243 38 ft 6 kts 328°
2026-05-07 05:50 -6.11810 106.65224 38 ft 10 kts 339°
2026-05-07 05:50 -6.11776 106.65174 38 ft 9 kts 268°
2026-05-07 05:51 -6.11802 106.65100 36 ft 14 kts 248°
2026-05-07 05:51 -6.11835 106.65016 37 ft 11 kts 248°
2026-05-07 05:51 -6.11868 106.64934 38 ft 16 kts 248°
2026-05-07 05:51 -6.11905 106.64841 37 ft 15 kts 248°
2026-05-07 05:52 -6.11945 106.64741 38 ft 15 kts 248°
2026-05-07 05:52 -6.11982 106.64648 38 ft 14 kts 248°
2026-05-07 05:52 -6.12017 106.64562 36 ft 15 kts 248°
2026-05-07 05:52 -6.12051 106.64476 38 ft 12 kts 248°
2026-05-07 05:53 -6.12090 106.64377 38 ft 17 kts 248°
2026-05-07 05:53 -6.12130 106.64276 38 ft 15 kts 248°
2026-05-07 05:53 -6.12173 106.64170 38 ft 17 kts 248°
2026-05-07 05:53 -6.12217 106.64061 38 ft 17 kts 248°
2026-05-07 05:54 -6.12256 106.63964 39 ft 10 kts 249°
2026-05-07 05:54 -6.12254 106.63908 39 ft 7 kts 301°
2026-05-07 05:54 -6.12218 106.63885 39 ft 5 kts 338°
2026-05-07 05:54 -6.12182 106.63878 39 ft 8 kts
2026-05-07 05:55 -6.12129 106.63898 39 ft 8 kts 16°
2026-05-07 05:55 -6.12082 106.63913 37 ft 7 kts 40°
2026-05-07 05:55 -6.12028 106.64040 38 ft 51 kts 68°
2026-05-07 05:55 -6.11814 106.64591 37 ft 115 kts 68°
2026-05-07 05:56 -6.11447 106.65507 37 ft 164 kts 68°
2026-05-07 05:56 -6.10998 106.66655 382 ft 178 kts 70°
2026-05-07 05:56 -6.10542 106.67816 1100 ft 179 kts 68°
2026-05-07 05:56 -6.09842 106.68858 1784 ft 184 kts 50°
2026-05-07 05:57 -6.08918 106.69843 2134 ft 207 kts 45°
2026-05-07 05:57 -6.07842 106.70916 2390 ft 231 kts 46°
2026-05-07 05:57 -6.06650 106.72107 2734 ft 254 kts 47°
2026-05-07 05:57 -6.05364 106.73400 3257 ft 265 kts 48°
2026-05-07 05:58 -6.04070 106.74719 4132 ft 265 kts 48°
2026-05-07 05:58 -6.02781 106.76048 4975 ft 266 kts 49°
2026-05-07 05:58 -6.01488 106.77391 5775 ft 269 kts 49°
2026-05-07 05:58 -6.00183 106.78749 6544 ft 272 kts 48°
2026-05-07 05:59 -5.98896 106.80150 7279 ft 274 kts 56°
2026-05-07 05:59 -5.98109 106.81877 7962 ft 275 kts 80°
2026-05-07 05:59 -5.98129 106.83789 8628 ft 279 kts 104°
2026-05-07 05:59 -5.98746 106.85664 9350 ft 284 kts 109°
2026-05-07 06:00 -5.99403 106.87539 10068 ft 286 kts 107°
2026-05-07 06:00 -6.00078 106.89518 10316 ft 312 kts 108°
2026-05-07 06:00 -6.00800 106.91633 10496 ft 329 kts 108°
2026-05-07 06:00 -6.01549 106.93832 10978 ft 337 kts 108°
2026-05-07 06:01 -6.02311 106.96061 11532 ft 340 kts 108°
2026-05-07 06:01 -6.03092 106.98323 12112 ft 345 kts 108°
2026-05-07 06:01 -6.03882 107.00614 12692 ft 349 kts 108°
2026-05-07 06:01 -6.04679 107.02928 13272 ft 351 kts 108°
2026-05-07 06:02 -6.05481 107.05258 13841 ft 355 kts 108°
2026-05-07 06:02 -6.06290 107.07615 14389 ft 359 kts 108°
2026-05-07 06:02 -6.07105 107.09994 14950 ft 361 kts 108°
2026-05-07 06:02 -6.07927 107.12390 15488 ft 364 kts 108°
2026-05-07 06:03 -6.08756 107.14806 16012 ft 367 kts 109°
2026-05-07 06:03 -6.09587 107.17238 16534 ft 369 kts 108°
2026-05-07 06:03 -6.10480 107.19668 17019 ft 372 kts 111°
2026-05-07 06:03 -6.11483 107.22076 17495 ft 375 kts 113°
2026-05-07 06:04 -6.12556 107.24479 17976 ft 378 kts 114°
2026-05-07 06:04 -6.13643 107.26855 18440 ft 381 kts 114°
2026-05-07 06:04 -6.14750 107.29282 18903 ft 384 kts 114°
2026-05-07 06:04 -6.15850 107.31736 19337 ft 387 kts 114°
2026-05-07 06:05 -6.16938 107.34217 19742 ft 390 kts 113°
2026-05-07 06:05 -6.18031 107.36725 20201 ft 393 kts 113°
2026-05-07 06:05 -6.19129 107.39251 20612 ft 396 kts 113°
2026-05-07 06:05 -6.20233 107.41796 21009 ft 399 kts 113°
2026-05-07 06:06 -6.21350 107.44362 21410 ft 402 kts 113°
2026-05-07 06:06 -6.22476 107.46943 21805 ft 405 kts 113°
2026-05-07 06:06 -6.23611 107.49545 22186 ft 408 kts 113°
2026-05-07 06:06 -6.24753 107.52164 22564 ft 411 kts 113°
2026-05-07 06:07 -6.25901 107.54802 22919 ft 413 kts 113°
2026-05-07 06:07 -6.27053 107.57457 23245 ft 416 kts 112°
2026-05-07 06:07 -6.28211 107.60131 23592 ft 419 kts 112°
2026-05-07 06:07 -6.29380 107.62824 23915 ft 421 kts 113°
2026-05-07 06:08 -6.30558 107.65527 24238 ft 424 kts 113°
2026-05-07 06:08 -6.31745 107.68247 24553 ft 426 kts 113°
2026-05-07 06:08 -6.32938 107.70982 24875 ft 428 kts 113°
2026-05-07 06:08 -6.34136 107.73732 25176 ft 430 kts 113°
2026-05-07 06:09 -6.35340 107.76494 25465 ft 433 kts 113°
2026-05-07 06:09 -6.36549 107.79270 25771 ft 434 kts 113°
2026-05-07 06:09 -6.37759 107.82059 26074 ft 436 kts 113°
2026-05-07 06:09 -6.38973 107.84858 26363 ft 437 kts 113°
2026-05-07 06:10 -6.40191 107.87667 26643 ft 439 kts 113°
2026-05-07 06:10 -6.41414 107.90484 26918 ft 441 kts 113°
2026-05-07 06:10 -6.42642 107.93313 27176 ft 442 kts 113°
2026-05-07 06:10 -6.43870 107.96148 27424 ft 443 kts 113°
2026-05-07 06:11 -6.45104 107.98997 27696 ft 445 kts 114°
2026-05-07 06:11 -6.45924 108.00888 27884 ft 446 kts 114°
2026-05-07 06:11 -6.47167 108.03752 28121 ft 447 kts 114°
2026-05-07 06:11 -6.48836 108.07595 28438 ft 449 kts 114°
2026-05-07 06:12 -6.49665 108.09503 28591 ft 450 kts 114°
2026-05-07 06:12 -6.50917 108.12395 28812 ft 452 kts 114°
2026-05-07 06:12 -6.52170 108.15297 29031 ft 453 kts 114°
2026-05-07 06:12 -6.53426 108.18200 29240 ft 454 kts 114°
2026-05-07 06:13 -6.54691 108.21112 29452 ft 455 kts 114°
2026-05-07 06:13 -6.55961 108.24035 29658 ft 456 kts 114°
2026-05-07 06:13 -6.57234 108.26965 29852 ft 458 kts 114°
2026-05-07 06:13 -6.58511 108.29901 30062 ft 459 kts 114°
2026-05-07 06:14 -6.59787 108.32847 30252 ft 460 kts 114°
2026-05-07 06:14 -6.61065 108.35802 30430 ft 461 kts 114°
2026-05-07 06:14 -6.62346 108.38766 30592 ft 463 kts 114°
2026-05-07 06:14 -6.63629 108.41734 30777 ft 463 kts 114°
2026-05-07 06:15 -6.64912 108.44705 31012 ft 462 kts 114°
2026-05-07 06:15 -6.66193 108.47669 31234 ft 462 kts 114°
2026-05-07 06:15 -6.67474 108.50633 31458 ft 462 kts 114°
2026-05-07 06:15 -6.68756 108.53603 31675 ft 463 kts 113°
2026-05-07 06:16 -6.69799 108.56657 31926 ft 462 kts 104°
2026-05-07 06:16 -6.70391 108.59835 32147 ft 463 kts 99°
2026-05-07 06:16 -6.70885 108.63032 32370 ft 462 kts 99°
2026-05-07 06:16 -6.71377 108.66227 32593 ft 462 kts 99°
2026-05-07 06:17 -6.71872 108.69421 32828 ft 462 kts 99°